Location: Cannifist
(18.2333°N, 63.0167°W)
Time: 07:34:39
(UTC+00:00)

Envisat - Pass Details

Date: 21 June 2021
Orbit: 764 x 766 km, 98.2° (Epoch: 28 July)

Event Time Altitude Azimuth Distance (km) Brightness Sun altitude
Rises 08:36:40 0° 30° (NNE) 3,223 7.4 -13.6°
Reaches altitude 10° 08:39:20 10° 43° (NE) 2,296 6.8 -13.0°
Maximum altitude 08:43:30 26° 99° (E) 1,471 5.1 -12.2°
Drops below altitude 10° 08:47:40 10° 155° (SSE) 2,291 5.4 -11.3°
Sets 08:50:18 0° 167° (SSE) 3,214 6.1 -10.7°
